ASA1308 MMPR-KLAX

Flight info

Callsign ASA1308
Flight time N/A
Altitude 38000
Route BOBDI1B BOBDI UT4 LMM UT8 PPE J93 ASUTA DCT AMMOR OLAAA2
Aircraft B738/M-SDE2E3FGHIRWXY/LB1

Departure

Time 2026-04-24 20:27
Airport Puerto Vallarta International Airport (MMPR)

Arrival

Time N/A
Airport Los Angeles International Airport (KLAX)
Time Latitude Longitude Altitude Speed Heading
2026-04-24 20:03 20.67990 -105.24590 28 ft 0 kts 227°
2026-04-24 20:18 20.67999 -105.24581 28 ft 2 kts 211°
2026-04-24 20:18 20.68014 -105.24574 28 ft 2 kts 188°
2026-04-24 20:18 20.68030 -105.24572 28 ft 2 kts 207°
2026-04-24 20:19 20.68042 -105.24560 28 ft 2 kts 241°
2026-04-24 20:19 20.68041 -105.24544 28 ft 2 kts 314°
2026-04-24 20:19 20.68036 -105.24539 28 ft 0 kts 317°
2026-04-24 20:22 20.68041 -105.24544 28 ft 3 kts 317°
2026-04-24 20:22 20.68060 -105.24564 28 ft 5 kts 317°
2026-04-24 20:22 20.68091 -105.24594 28 ft 7 kts 317°
2026-04-24 20:23 20.68130 -105.24633 28 ft 9 kts 317°
2026-04-24 20:23 20.68179 -105.24683 28 ft 10 kts 314°
2026-04-24 20:23 20.68250 -105.24697 28 ft 12 kts 22°
2026-04-24 20:23 20.68336 -105.24665 28 ft 14 kts 16°
2026-04-24 20:24 20.68437 -105.24633 28 ft 16 kts 17°
2026-04-24 20:24 20.68529 -105.24560 28 ft 17 kts 47°
2026-04-24 20:24 20.68610 -105.24466 28 ft 18 kts 47°
2026-04-24 20:24 20.68700 -105.24362 28 ft 20 kts 47°
2026-04-24 20:25 20.68804 -105.24260 28 ft 20 kts 18°
2026-04-24 20:25 20.68887 -105.24303 27 ft 11 kts 318°
2026-04-24 20:25 20.68932 -105.24358 28 ft 6 kts 271°
2026-04-24 20:25 20.68905 -105.24389 28 ft 6 kts 224°
2026-04-24 20:26 20.68850 -105.24453 29 ft 32 kts 227°
2026-04-24 20:26 20.68527 -105.24823 27 ft 103 kts 227°
2026-04-24 20:26 20.67894 -105.25535 94 ft 153 kts 225°
2026-04-24 20:26 20.67101 -105.26393 594 ft 172 kts 224°
2026-04-24 20:27 20.66187 -105.27312 1263 ft 181 kts 229°
2026-04-24 20:27 20.65413 -105.28252 2380 ft 160 kts 239°
2026-04-24 20:27 20.65192 -105.29445 2632 ft 185 kts 285°
2026-04-24 20:27 20.65887 -105.30703 2856 ft 208 kts 320°
2026-04-24 20:28 20.67207 -105.31403 3231 ft 222 kts 340°
2026-04-24 20:28 20.68711 -105.31997 3681 ft 235 kts 339°
2026-04-24 20:28 20.70238 -105.32601 4456 ft 232 kts 339°
2026-04-24 20:28 20.71739 -105.33198 5222 ft 231 kts 338°
2026-04-24 20:29 20.72729 -105.33593 5755 ft 228 kts 338°
2026-04-24 20:29 20.74724 -105.34395 6621 ft 232 kts 338°
2026-04-24 20:29 20.76214 -105.35133 7052 ft 245 kts 329°
2026-04-24 20:29 20.77756 -105.36110 7247 ft 268 kts 327°
2026-04-24 20:30 20.79372 -105.37174 7758 ft 277 kts 327°
2026-04-24 20:30 20.81017 -105.38255 8439 ft 280 kts 328°
2026-04-24 20:30 20.82698 -105.39351 9134 ft 282 kts 328°
2026-04-24 20:30 20.84398 -105.40450 9782 ft 288 kts 327°
2026-04-24 20:31 20.86131 -105.41569 10287 ft 296 kts 328°
2026-04-24 20:31 20.87943 -105.42734 10441 ft 318 kts 328°
2026-04-24 20:31 20.89896 -105.43985 10588 ft 337 kts 328°
2026-04-24 20:31 20.91965 -105.45309 10726 ft 354 kts 329°
2026-04-24 20:32 20.94135 -105.46694 10848 ft 371 kts 329°
2026-04-24 20:32 20.96388 -105.48133 11053 ft 382 kts 329°
2026-04-24 20:32 20.98696 -105.49605 11404 ft 388 kts 329°
2026-04-24 20:32 21.00971 -105.51057 11760 ft 393 kts 329°
2026-04-24 20:33 21.03333 -105.52564 12242 ft 394 kts 329°
2026-04-24 20:33 21.05691 -105.54070 12752 ft 396 kts 329°
2026-04-24 20:33 21.08076 -105.55594 13154 ft 400 kts 329°
2026-04-24 20:33 21.10484 -105.57133 13590 ft 403 kts 329°
2026-04-24 20:34 21.12867 -105.58656 14038 ft 405 kts 329°
2026-04-24 20:34 21.15305 -105.60215 14412 ft 409 kts 329°
2026-04-24 20:34 21.17753 -105.61782 14829 ft 411 kts 329°
2026-04-24 20:34 21.20215 -105.63358 15272 ft 412 kts 329°
2026-04-24 20:35 21.22699 -105.64950 15609 ft 417 kts 329°
2026-04-24 20:35 21.25176 -105.66537 15939 ft 421 kts 329°
2026-04-24 20:35 21.27702 -105.68155 16334 ft 423 kts 329°
2026-04-24 20:35 21.30236 -105.69780 16603 ft 428 kts 329°
2026-04-24 20:36 21.32809 -105.71431 16936 ft 431 kts 329°
2026-04-24 20:36 21.35398 -105.73092 17253 ft 435 kts 329°
2026-04-24 20:36 21.38002 -105.74770 17556 ft 438 kts 328°
2026-04-24 20:36 21.40548 -105.76546 18057 ft 436 kts 325°
2026-04-24 20:37 21.43055 -105.78397 18304 ft 440 kts 324°
2026-04-24 20:37 21.45572 -105.80297 18547 ft 442 kts 324°
2026-04-24 20:37 21.48087 -105.82204 18933 ft 442 kts 324°
2026-04-24 20:37 21.50605 -105.84107 19177 ft 445 kts 324°
2026-04-24 20:38 21.53156 -105.86024 19409 ft 448 kts 324°
2026-04-24 20:38 21.55689 -105.87920 19730 ft 448 kts 324°
2026-04-24 20:38 21.58253 -105.89833 20020 ft 450 kts 324°
2026-04-24 20:38 21.60835 -105.91757 20266 ft 452 kts 324°
2026-04-24 20:39 21.63434 -105.93694 20539 ft 454 kts 324°
2026-04-24 20:39 21.66037 -105.95634 20807 ft 456 kts 324°
2026-04-24 20:39 21.68652 -105.97585 21082 ft 457 kts 324°
2026-04-24 20:39 21.71273 -105.99540 21374 ft 458 kts 324°
2026-04-24 20:40 21.73720 -106.01367 21611 ft 459 kts 324°
2026-04-24 20:40 21.76318 -106.03309 21840 ft 461 kts 324°
2026-04-24 20:40 21.78962 -106.05285 22080 ft 463 kts 324°
2026-04-24 20:40 21.81614 -106.07269 22322 ft 464 kts 324°
2026-04-24 20:41 21.84269 -106.09255 22558 ft 466 kts 324°
2026-04-24 20:41 21.86934 -106.11250 22785 ft 467 kts 323°
2026-04-24 20:41 21.89612 -106.13255 23011 ft 469 kts 323°
2026-04-24 20:41 21.92295 -106.15265 23231 ft 470 kts 323°
2026-04-24 20:42 21.94984 -106.17281 23445 ft 472 kts 323°
2026-04-24 20:42 21.97683 -106.19304 23646 ft 472 kts 323°
2026-04-24 20:42 22.00361 -106.21313 23889 ft 472 kts 323°
2026-04-24 20:42 22.03063 -106.23341 24082 ft 473 kts 323°
2026-04-24 20:43 22.05730 -106.25344 24243 ft 474 kts 323°
2026-04-24 20:43 22.08449 -106.27388 24403 ft 475 kts 323°
2026-04-24 20:43 22.11165 -106.29430 24573 ft 476 kts 323°
2026-04-24 20:43 22.13900 -106.31487 24745 ft 477 kts 323°
2026-04-24 20:44 22.16596 -106.33516 24906 ft 478 kts 323°
2026-04-24 20:44 22.19335 -106.35577 25067 ft 479 kts 323°
2026-04-24 20:44 22.22074 -106.37639 25224 ft 480 kts 323°
2026-04-24 20:44 22.24823 -106.39709 25437 ft 480 kts 323°
2026-04-24 20:45 22.27560 -106.41771 25736 ft 478 kts 322°
2026-04-24 20:45 22.30274 -106.43816 26098 ft 474 kts 322°
2026-04-24 20:45 22.32989 -106.45863 26393 ft 473 kts 322°
2026-04-24 20:45 22.35645 -106.47869 26618 ft 473 kts 322°
2026-04-24 20:46 22.38343 -106.49907 26852 ft 473 kts 322°
2026-04-24 20:46 22.41043 -106.51947 27139 ft 472 kts 322°
2026-04-24 20:46 22.43736 -106.53984 27460 ft 471 kts 322°
2026-04-24 20:46 22.46427 -106.56018 27775 ft 470 kts 322°
2026-04-24 20:47 22.49111 -106.58049 28075 ft 469 kts 322°
2026-04-24 20:47 22.51753 -106.60050 28377 ft 468 kts 322°
2026-04-24 20:47 22.54420 -106.62070 28702 ft 467 kts 322°
2026-04-24 20:47 22.57078 -106.64083 29142 ft 464 kts 321°
2026-04-24 20:48 22.59705 -106.66074 29608 ft 460 kts 321°
2026-04-24 20:48 22.62326 -106.68062 29956 ft 460 kts 321°
2026-04-24 20:48 22.64945 -106.70050 30187 ft 460 kts 321°
2026-04-24 20:48 22.67575 -106.72049 30391 ft 462 kts 321°
2026-04-24 20:49 22.70204 -106.74047 30666 ft 461 kts 321°
2026-04-24 20:49 22.72829 -106.76041 30994 ft 460 kts 321°
2026-04-24 20:49 22.75445 -106.78030 31332 ft 458 kts 321°
2026-04-24 20:49 22.78024 -106.79991 31623 ft 457 kts 321°
2026-04-24 20:50 22.80630 -106.81975 31897 ft 457 kts 321°
2026-04-24 20:50 22.83232 -106.83956 32202 ft 456 kts 321°
2026-04-24 20:50 22.85845 -106.85946 32603 ft 453 kts 320°
2026-04-24 20:50 22.88416 -106.87905 33001 ft 451 kts 320°
2026-04-24 20:51 22.90983 -106.89862 33279 ft 451 kts 320°
2026-04-24 20:51 22.93521 -106.91800 33516 ft 451 kts 320°
2026-04-24 20:51 22.96083 -106.93756 33793 ft 451 kts 320°
2026-04-24 20:51 22.98652 -106.95718 34079 ft 450 kts 320°
2026-04-24 20:52 23.01182 -106.97650 34374 ft 448 kts 320°
2026-04-24 20:52 23.03722 -106.99591 34666 ft 446 kts 320°
2026-04-24 20:52 23.06090 -107.01402 34912 ft 445 kts 320°
2026-04-24 20:52 23.08620 -107.03338 35163 ft 444 kts 320°
2026-04-24 20:53 23.11144 -107.05271 35431 ft 443 kts 320°
2026-04-24 20:53 23.13661 -107.07199 35733 ft 440 kts 320°
2026-04-24 20:53 23.16156 -107.09108 36115 ft 436 kts 319°
2026-04-24 20:53 23.18630 -107.11003 36406 ft 434 kts 319°
2026-04-24 20:54 23.21096 -107.12893 36586 ft 434 kts 319°
2026-04-24 20:54 23.23569 -107.14791 36760 ft 435 kts 319°
2026-04-24 20:54 23.26035 -107.16684 36996 ft 434 kts 319°
2026-04-24 20:54 23.28465 -107.18549 37265 ft 432 kts 319°
2026-04-24 20:55 23.30919 -107.20433 37515 ft 430 kts 319°
2026-04-24 20:55 23.33364 -107.22313 37723 ft 429 kts 319°
2026-04-24 20:55 23.35804 -107.24190 37890 ft 430 kts 319°
2026-04-24 20:55 23.38251 -107.26074 37889 ft 432 kts 319°
2026-04-24 20:56 23.43161 -107.29855 37909 ft 429 kts 319°
2026-04-24 20:56 23.47983 -107.33568 37900 ft 425 kts 319°
2026-04-24 20:57 23.52793 -107.37276 37900 ft 421 kts 319°
2026-04-24 20:57 23.57571 -107.40966 37905 ft 418 kts 319°
2026-04-24 20:58 23.62314 -107.44632 37906 ft 418 kts 319°
2026-04-24 20:58 23.67101 -107.48340 37912 ft 424 kts 319°
2026-04-24 20:59 23.71919 -107.52073 37908 ft 429 kts 319°
2026-04-24 20:59 23.76805 -107.55858 37905 ft 431 kts 319°
2026-04-24 21:00 23.81700 -107.59653 37905 ft 432 kts 319°
2026-04-24 21:00 23.85778 -107.62817 37906 ft 432 kts 319°
2026-04-24 21:01 23.90632 -107.66587 37903 ft 431 kts 319°
2026-04-24 21:01 23.95548 -107.70409 37900 ft 429 kts 319°
2026-04-24 21:02 24.00396 -107.74182 37905 ft 428 kts 318°
2026-04-24 21:02 24.05238 -107.77954 37902 ft 426 kts 318°
2026-04-24 21:03 24.10053 -107.81709 37903 ft 424 kts 318°
2026-04-24 21:03 24.14828 -107.85437 37905 ft 423 kts 318°
2026-04-24 21:04 24.19621 -107.89183 37904 ft 422 kts 318°
2026-04-24 21:04 24.24393 -107.92915 37911 ft 421 kts 318°
2026-04-24 21:05 24.29172 -107.96657 37911 ft 421 kts 317°
2026-04-24 21:05 24.33778 -108.00266 37904 ft 420 kts 317°
2026-04-24 21:06 24.38529 -108.03992 37911 ft 420 kts 317°
2026-04-24 21:06 24.43279 -108.07721 37909 ft 420 kts 317°
2026-04-24 21:07 24.48003 -108.11433 37909 ft 420 kts 317°
2026-04-24 21:07 24.52753 -108.15170 37926 ft 420 kts 317°
2026-04-24 21:08 24.57510 -108.18916 37912 ft 420 kts 317°
2026-04-24 21:08 24.62263 -108.22661 37906 ft 420 kts 317°
2026-04-24 21:09 24.66995 -108.26393 37907 ft 420 kts 317°
2026-04-24 21:09 24.71757 -108.30152 37907 ft 421 kts 317°
2026-04-24 21:10 24.76509 -108.33907 37904 ft 421 kts 317°
2026-04-24 21:10 24.81261 -108.37666 37915 ft 421 kts 316°
2026-04-24 21:11 24.86026 -108.41440 37906 ft 421 kts 316°
2026-04-24 21:11 24.90756 -108.45189 37901 ft 421 kts 316°
2026-04-24 21:12 24.95517 -108.48966 37907 ft 421 kts 316°
2026-04-24 21:12 25.00271 -108.52741 37904 ft 422 kts 316°
2026-04-24 21:13 25.05033 -108.56527 37905 ft 422 kts 316°
2026-04-24 21:13 25.09795 -108.60316 37912 ft 422 kts 316°
2026-04-24 21:14 25.14538 -108.64094 37907 ft 422 kts 316°
2026-04-24 21:14 25.19307 -108.67897 37904 ft 422 kts 316°
2026-04-24 21:15 25.24043 -108.71677 37906 ft 421 kts 316°
2026-04-24 21:15 25.28798 -108.75475 37904 ft 421 kts 316°
2026-04-24 21:16 25.33558 -108.79281 37908 ft 421 kts 315°
2026-04-24 21:16 25.38311 -108.83088 37901 ft 421 kts 315°
2026-04-24 21:17 25.43031 -108.86872 37909 ft 421 kts 315°
2026-04-24 21:17 25.47775 -108.90680 37916 ft 421 kts 315°
2026-04-24 21:18 25.52487 -108.94501 37928 ft 420 kts 315°
2026-04-24 21:18 25.57226 -108.98291 37929 ft 420 kts 315°
2026-04-24 21:19 25.61814 -109.01972 37935 ft 420 kts 315°
2026-04-24 21:19 25.66521 -109.05762 37941 ft 419 kts 315°
2026-04-24 21:20 25.73850 -109.11182 37942 ft 423 kts 319°
2026-04-24 21:21 25.78865 -109.14627 37931 ft 423 kts 319°
2026-04-24 21:21 25.83826 -109.18070 37916 ft 422 kts 318°
2026-04-24 21:22 25.88806 -109.21559 37915 ft 422 kts 318°
2026-04-24 21:22 25.93767 -109.25045 37912 ft 422 kts 318°
2026-04-24 21:23 25.98707 -109.28520 37899 ft 421 kts 318°
2026-04-24 21:23 26.03658 -109.32006 37894 ft 421 kts 318°
2026-04-24 21:24 26.08614 -109.35498 37893 ft 421 kts 318°
2026-04-24 21:24 26.13564 -109.38985 37923 ft 421 kts 317°
2026-04-24 21:25 26.18487 -109.42452 37907 ft 420 kts 317°
2026-04-24 21:25 26.23427 -109.45935 37896 ft 419 kts 317°
2026-04-24 21:26 26.28359 -109.49417 37899 ft 419 kts 317°
2026-04-24 21:26 26.33283 -109.52898 37898 ft 419 kts 317°
2026-04-24 21:27 26.38171 -109.56356 37900 ft 418 kts 317°
2026-04-24 21:27 26.43091 -109.59842 37900 ft 418 kts 317°
2026-04-24 21:28 26.48007 -109.63328 37899 ft 419 kts 317°
2026-04-24 21:28 26.52929 -109.66821 37898 ft 419 kts 317°
2026-04-24 21:29 26.57856 -109.70322 37896 ft 419 kts 317°
2026-04-24 21:29 26.62778 -109.73823 37898 ft 420 kts 317°
2026-04-24 21:30 26.67686 -109.77313 37903 ft 420 kts 317°
2026-04-24 21:30 26.72625 -109.80828 37905 ft 420 kts 317°
2026-04-24 21:31 26.77540 -109.84331 37899 ft 420 kts 317°
2026-04-24 21:31 26.82490 -109.87863 37881 ft 420 kts 317°
2026-04-24 21:32 26.87416 -109.91383 37888 ft 420 kts 317°
2026-04-24 21:32 26.92318 -109.94888 37933 ft 419 kts 317°
2026-04-24 21:33 26.97240 -109.98411 37898 ft 419 kts 316°
2026-04-24 21:33 27.01938 -110.01778 37891 ft 418 kts 316°
2026-04-24 21:34 27.06842 -110.05296 37896 ft 417 kts 316°
2026-04-24 21:34 27.11743 -110.08816 37893 ft 417 kts 316°
2026-04-24 21:35 27.16629 -110.12329 37893 ft 416 kts 316°
2026-04-24 21:35 27.21504 -110.15843 37894 ft 416 kts 317°
2026-04-24 21:36 27.26336 -110.19331 37886 ft 415 kts 317°
2026-04-24 21:36 27.31194 -110.22842 37888 ft 414 kts 316°
2026-04-24 21:37 27.36051 -110.26356 37887 ft 414 kts 316°
2026-04-24 21:37 27.40871 -110.29846 37886 ft 414 kts 316°
2026-04-24 21:38 27.45715 -110.33359 37887 ft 414 kts 316°
2026-04-24 21:38 27.50571 -110.36883 37892 ft 413 kts 316°
2026-04-24 21:39 27.55382 -110.40378 37889 ft 413 kts 316°
2026-04-24 21:39 27.60224 -110.43900 37887 ft 413 kts 316°
2026-04-24 21:40 27.65032 -110.47400 37897 ft 413 kts 316°
2026-04-24 21:40 27.69869 -110.50925 37905 ft 414 kts 316°
2026-04-24 21:41 27.74709 -110.54457 37896 ft 414 kts 316°
2026-04-24 21:41 27.79548 -110.57991 37887 ft 414 kts 316°
2026-04-24 21:42 27.84359 -110.61508 37890 ft 414 kts 316°
2026-04-24 21:42 27.89194 -110.65047 37902 ft 414 kts 316°
2026-04-24 21:43 27.93242 -110.68013 37950 ft 414 kts 317°
2026-04-24 21:43 27.98081 -110.71563 37922 ft 414 kts 317°
2026-04-24 21:44 28.02885 -110.75089 37915 ft 414 kts 317°
2026-04-24 21:44 28.07722 -110.78646 37929 ft 413 kts 317°
2026-04-24 21:45 28.12533 -110.82183 37901 ft 411 kts 317°
2026-04-24 21:45 28.17332 -110.85718 37865 ft 411 kts 317°
2026-04-24 21:46 28.22105 -110.89241 37878 ft 412 kts 317°
2026-04-24 21:46 28.26923 -110.92798 37885 ft 412 kts 317°
2026-04-24 21:47 28.31716 -110.96340 37873 ft 413 kts 317°
2026-04-24 21:47 28.36551 -110.99913 37877 ft 414 kts 317°
2026-04-24 21:48 28.41239 -111.03380 37872 ft 415 kts 317°
2026-04-24 21:48 28.46048 -111.06940 37879 ft 415 kts 317°
2026-04-24 21:49 28.50879 -111.10520 37869 ft 414 kts 317°
2026-04-24 21:49 28.55713 -111.14108 37872 ft 414 kts 317°
2026-04-24 21:50 28.60535 -111.17690 37865 ft 413 kts 316°
2026-04-24 21:50 28.65315 -111.21246 37870 ft 413 kts 316°
2026-04-24 21:51 28.70138 -111.24839 37861 ft 413 kts 316°
2026-04-24 21:51 28.74944 -111.28422 37866 ft 412 kts 316°
2026-04-24 21:52 28.79748 -111.32007 37861 ft 412 kts 316°
2026-04-24 21:52 28.84537 -111.35585 37859 ft 411 kts 316°
2026-04-24 21:53 28.89298 -111.39146 37856 ft 411 kts 316°
2026-04-24 21:53 28.94094 -111.42738 37862 ft 411 kts 316°
2026-04-24 21:54 28.98881 -111.46328 37861 ft 411 kts 316°
2026-04-24 21:54 29.03625 -111.49889 37857 ft 411 kts 316°
2026-04-24 21:55 29.08416 -111.53489 37853 ft 411 kts 316°
2026-04-24 21:55 29.13167 -111.57063 37862 ft 411 kts 316°
2026-04-24 21:56 29.17958 -111.60671 37844 ft 411 kts 316°